Weather Roundup
Issued by NWS

Home | Current Version | Previous Version | Graphics & Text | Print | Product List | Glossary Off
Versions: 1 2 3 4 5 6 7 8 9 10 11 12 13 14 15 16 17 18 19 20 21 22 23 24 25 26 27 28 29 30 31 32 33 34 35 36 37 38 39 40 41 42 43 44 45 46 47 48 49 50

000
NZUS93 KARX 232359
HRRWXR

CURRENT HOURLY OBSERVATIONS ACROSS
MUCH OF THE UPPER MISSISSIPPI VALLEY
NATIONAL WEATHER SERVICE LA CROSSE WI
700 PM CDT SUN APR 23 2017


...SOUTHEAST MINNESOTA...


CITY           SKY/WX    TMP DP  RH WIND       PRES   REMARKS
ROCHESTER      PTSUNNY   66  33  29 S10       29.93F
ROCHESTER/MAYO FAIR      68  31  25 S10       29.92F
WINONA         CLOUDY    70  32  24 SW5       29.93F
AUSTIN         CLOUDY    66  28  24 S12       29.92F
ALBERT LEA     CLOUDY    68  21  17 S10       29.91F
DODGE CENTER   PTSUNNY   66  30  26 S12       29.92F
PRESTON        CLOUDY    65  32  29 S6        29.94F
OWATONNA       CLOUDY    70  23  17 S12G20    29.90F
FARIBAULT      CLOUDY    70  30  23 S7        29.89F
$$

...ELSEWHERE IN MINNESOTA...


CITY           SKY/WX    TMP DP  RH WIND       PRES   REMARKS
MINNEAPOLIS    CLOUDY    68  36  30 SE8       29.88F
INTNL FALLS    CLOUDY    37  13  37 E7        30.10F WCI  32
DULUTH         CLOUDY    33  29  85 E12       30.08F WCI  24
RED WING       CLOUDY    70  27  19 S5        29.89F
REDWOOD FALLS  SUNNY     71  28  20 S18G28    29.82F
MANKATO        CLOUDY    71  25  17 SW17      29.87F
WORTHINGTON    CLOUDY    69  28  21 S18G26    29.85F
FAIRMONT       MOSUNNY   70  28  21 SW16      29.89F
$$

...SOUTHWEST WISCONSIN...


CITY           SKY/WX    TMP DP  RH WIND       PRES   REMARKS
LA CROSSE      CLOUDY    70  35  27 S7        29.94F
PRAIRIE DU CHI CLEAR     69  29  22 SW3       29.98S
BOSCOBEL       CLOUDY    70  30  22 SW6       29.98F
LONE ROCK      NOT AVBL
PLATTEVILLE    CLOUDY    69  36  30 SW5       30.01S
FORT MC COY    MOCLDY    68  31  25 S3        29.96F
MAUSTON-NEW LI PTCLDY    69  34  27 SW3       29.97S
VIROQUA        FAIR      65  34  31 SW5       29.98F
WIS DELLS      CLEAR     68  31  25 SW6       29.98S
$$

...ELSEWHERE IN WISCONSIN...


CITY           SKY/WX    TMP DP  RH WIND       PRES   REMARKS
MILWAUKEE      MOCLDY    41  35  79 N12       30.09F
MADISON        MOCLDY    69  33  26 VRB5      29.99S
GREEN BAY      CLOUDY    45  38  76 NE14      30.10S
EAU CLAIRE     CLOUDY    64  41  42 E7        29.92F
BLACK RVR FLS  FAIR      69  27  21 SW5       29.95F
MEDFORD        CLOUDY    60  43  52 E3        29.97F
WAUSAU         PTCLDY    54  41  61 E17       29.99S
WIS RAPIDS     CLEAR     59  45  59 SE10      30.00S
MARSHFIELD     PTCLDY    59  43  55 SE15G23   29.97R
RICE LAKE      CLOUDY    55  39  54 N13       29.96F
$$

...NORTHEAST IOWA...


CITY           SKY/WX    TMP DP  RH WIND       PRES   REMARKS
WATERLOO       MOSUNNY   68  29  23 SW12      29.96F
DUBUQUE        CLEAR     65  37  35 SW7       30.01F
DECORAH        MOCLDY    68  32  26 SW5       29.95F
MASON CITY     CLOUDY    66  28  24 S12       29.93F
CHARLES CITY   CLOUDY    68  27  21 S12       29.95F
OELWEIN        CLEAR     66  34  30 SW10      29.98F
$$

...ELSEWHERE IN IOWA...


CITY           SKY/WX    TMP DP  RH WIND       PRES   REMARKS
DES MOINES     CLOUDY    68  30  24 S10       29.98F
IOWA CITY      CLOUDY    70  32  24 SE3       30.02S
FORT DODGE     MOSUNNY   66  30  26 S10       29.94F
MARSHALLTOWN   CLOUDY    67  32  27 S10       29.96F
CEDAR RAPIDS   CLOUDY    68  30  24 S6        29.99F
$$

...NORTHERN ILLINOIS...


CITY           SKY/WX    TMP DP  RH WIND       PRES   REMARKS
CHICAGO-OHARE  PTCLDY    65  31  28 E13       30.03S
CHICAGO-MIDWAY PTCLDY    65  29  25 SE10      30.05S
MOLINE         CLEAR     67  39  35 SE3       30.00F
ROCKFORD       MOCLDY    70  31  23 CALM      30.02F
PEORIA         CLEAR     71  14  11 CALM      30.02F
$$

NOTE: "FAIR" INDICATES FEW OR NO CLOUDS BELOW 12,000 FEET WITH NO
SIGNIFICANT WEATHER AND/OR OBSTRUCTIONS TO VISIBILITY. WIND
SPEEDS ARE IN MILES-PER-HOUR.




USA.gov is the U.S. government's official web portal to all federal, state and local government web resources and services.